Zurück zum Katalog

STARLINK-36865

AktivKommunikationVLEO
NORAD 67930·PAYLOAD·🇺🇸 United States

Gestartet Feb 22, 2026 von Vandenberg Space Force Base

Loading…

Nächste Überflüge (nächste 24 Stunden)

TLE

AktuellSource: CelesTrak SupGP

Epoche: Sep 15, 2026, 02:56 UTC

1 67930C 26036AC  26258.12270833 -.00023852  00000+0 -86409-3 0  2580
2 67930  43.0007 255.1411 0001187 264.4369 208.4830 15.27584453    11

Verfolge STARLINK-36865 in Echtzeit mit AllMySat

Download on the App Store